World > North America > United States > Wyoming > Manderson  

Manderson, WY Hourly Weather Updates

Feedback E-mail the Weather

Quick WX

Manderson, WY Weather Maps

°F °C°F °C
Manderson Weather Map
UTC Time: 2/29/2024, 17:43
Your Time:

Manderson, WY Regional Weather

Expires:202402291800;;158303
ASUS45 KCYS 291710
RWRWY 

WYOMING REGIONAL WEATHER ROUNDUP
NATIONAL WEATHER SERVICE CHEYENNE WY
1000 AM MST THU FEB 29 2024

NOTE:  "FAIR" INDICATES FEW OR NO CLOUDS BELOW 12,000 FEET
WITH NO SIGNIFICANT WEATHER AND/OR OBSTRUCTIONS TO VISIBILITY.


WYZ002>013-054>058-071-098>099-291800-
...NORTHERN WYOMING...
  
CITY           SKY/WX    TMP DP  RH WIND       PRES   REMARKS
JACKSON        CLOUDY    32  20  61 SE3       29.92F                  
CODY           PTSUNNY   43  20  39 SW9       29.79F                  
GREYBULL       MOSUNNY   37  24  59 S6        29.82F WCI  32          
WORLAND        SUNNY     31  25  78 W3        29.82F                  
SHERIDAN       SUNNY     46  24  42 CALM      29.71F                  
BUFFALO        SUNNY     47  23  38 SE8       29.72F                  
GILLETTE       SUNNY     46  23  40 SW22      29.74F                  
HULETT         SUNNY     46  21  36 SW15G22   29.77F                  
NEWCASTLE      SUNNY     43  18  36 SE7       29.84F                  

$$

SKY/WX - Weather  TMP - Temperature  DP - Dew Point  RH - Humidity
WIND - Wind Direction/Speed PRES - Barometric Pressure VSB - Visibility
WCI - Wind Chill Index E13G22 Wind - East Wind 13 mph/Gusts of 22 mph

Trending Headlines

Trending Entertainment Headlines

Manderson Radar Loop

Use the map search tool if you want to place a location marker on the radar map...

Manderson Quick Facts

National Two Day Weather Forecast


E-mail the Manderson Weather Forecast

Voice your opinion or tell us about page issues...